Regional Weather Roundup
Issued by NWS Charleston, SC

Current Version | Previous Version | Graphics & Text | Print | Product List | Glossary On
Versions: 1 2 3 4 5 6 7 8 9 10 11 12 13 14 15 16 17 18 19 20 21 22 23 24 25 26 27 28 29 30 31 32 33 34 35 36 37 38 39 40 41 42 43 44 45 46 47 48 49 50
000
ASUS42 KCHS 231926
RWRCHS

REGIONAL WEATHER ROUNDUP
NATIONAL WEATHER SERVICE CHARLESTON SC
200 PM EST THU FEB 23 2017

NOTE: "FAIR" INDICATES FEW OR NO CLOUDS BELOW 12,000 FEET WITH NO
SIGNIFICANT WEATHER AND/OR OBSTRUCTIONS TO VISIBILITY.

NOT ALL STATIONS ARE QUALITY CONTROLLED. USE DATA WITH CAUTION...
ESPECIALLY DEWPOINT OBSERVATIONS.

SCZ027-030-031-034>040-042>050-232000-
...SOUTHEAST SOUTH CAROLINA...

CITY           SKY/WX    TMP DP  RH WIND       PRES   REMARKS
N CHARLESTON   PTSUNNY   77  57  50 E16G25    29.82F
WATERFRONT PRK   N/A     70  62  76 E13       29.82F
MOUNT PLEASANT FAIR      73  63  68 E6G21     29.83F
JOHNS ISLAND   FAIR      75  63  64 NE16G24   29.82F
PINOPOLIS        N/A     70  59  68 E8        29.76F
MONCKS CORNER  MOCLDY    73  54  49 E9        29.83S
SUMMERVILLE    MOCLDY    77  55  47 E7        29.82F
BEAUFORT MCAS  PTSUNNY   77  61  57 E14G21    29.81F
BEAUFORT ARPT  FAIR      73  61  64 E20G25    29.81F
HILTON HEAD IS MOSUNNY   72  63  73 NE14G23   29.82F
WALTERBORO     MOCLDY    75  57  53 E10       29.82F
ALLENDALE      CLOUDY    73  57  56 NE5       29.81F

...SOUTHERN MIDLANDS AND PEE DEE...

CITY           SKY/WX    TMP DP  RH WIND       PRES   REMARKS
GEORGETOWN     FAIR      72  59  64 E12G20    29.86F
KINGSTREE      MOCLDY    72  54  53 E9        29.84F
ORANGEBURG     MOSUNNY   75  54  47 NE9       29.84F
BARNWELL       MOCLDY    77  57  50 E9G16     29.83F
AIKEN          MOCLDY    72  54  53 E8        29.87F
MANNING        MOCLDY   N/A N/A N/A MISG      29.84F
COLUMBIA       MOSUNNY   75  52  44 E8        29.84F
SUMTER         PTSUNNY   74  53  46 E7        29.83F
FLORENCE       CLOUDY    75  56  51 SE9G17    29.86F
MYRTLE BEACH   PTSUNNY   70  57  64 E17G23    29.88F
N MYRTLE BEACH SUNNY     73  57  57 E13       29.87F

$$

GAZ063-065-086>088-099>101-113>116-118-119-134>141-150-232000-
...SOUTHEAST GEORGIA...

CITY           SKY/WX    TMP DP  RH WIND       PRES   REMARKS
SAVANNAH ARPT  PTSUNNY   78  59  51 E17G25    29.80F
HUNTER AAF     MOSUNNY   75  65  71 NE13G21   29.78F
FORT STEWART   MOSUNNY   76  61  57 E14G22    29.77F
STATESBORO     PTSUNNY   74  61  63 E5        29.81F
SYLVANIA       CLOUDY   N/A N/A N/A E7        29.82F
CLAXTON        MOCLDY   N/A N/A N/A NE8       29.80F

...CSRA...CENTRAL AND FAR SOUTHEAST GEORGIA...

CITY           SKY/WX    TMP DP  RH WIND       PRES   REMARKS
THOMSON        PTSUNNY   77  55  46 E7        29.87F
AUGUSTA-BUSH   PTSUNNY   77  55  46 E12       29.83F
AUGUSTA-DANIEL SUNNY     76  52  43 E10G18    29.84F
SWAINSBORO     MOCLDY    73  55  53 E7        29.82F
VIDALIA        PTSUNNY   77  63  61 E5        29.80F
EASTMAN        MOCLDY    77  42  28 E7        29.83F
HAZLEHURST     FAIR      75  62  64 E5        29.79S
ALMA           MOSUNNY   77  61  57 NE8       29.78F
WAYCROSS       MOSUNNY   80  64  57 E13G21    29.76F
JESUP          CLOUDY    77  61  57 E9G22     29.77F
BAXLEY         CLOUDY    75  64  69 NE9       29.78F
BRUNSWICK      MOSUNNY   75  66  73 NE23      29.78F
SAINT SIMONS   MOSUNNY   73  63  70 NE22G29   29.78F

$$

SCZ027-028-034-036>038-045-046-048>050-GAZ119-141-232000-
...LAKE AND SUPPLEMENTAL COASTAL OBSERVATIONS...

STATION/POSITION TIME  TEMP    WIND        PRES    WAVE   SWELL
                       AIR SEA DIR/SP/G            HT/PER HT/PER/DIR
                 (UTC) (F)     (DEG/KT/KT) (MB)    (FT/S) (FT/S/D)
WINYAH BAY       1845   65      60/ 13     1011.0F
LAKE MURRAY      1830   71     100/  4/  6 1010.5F
ACE BASIN NERRS  1845   76      70/  5     1009.0F
FORT PULASKI     1900   66 62   70/ 16/ 21 1009.6
SAPELO ISLAND    1900   73      50/ 16     1008.0

$$

ANZ835-935-AMZ111-154-330-350-352-354-370-450-454-472-232000-
...C-MAN AND BUOY OBSERVATIONS...

STATION/POSITION TIME  TEMP    WIND        PRES    WAVE   SWELL
                       AIR SEA DIR/SP/G            HT/PER HT/PER/DIR
                 (UTC) (F)     (DEG/KT/KT) (MB)    (FT/S) (FT/S/D)
BUOY 41004       1750   71 69   80/ 16/ 17 1009.7    8/ 8   7/140/ 8
BUOY 41008       1850   64 63   40/ 16/ 19 1007.6F   7/ 9   5/130/ 9
FOLLY BEACH CMAN 1900   65      50/ 16/ 18 1010.7F
CAPERS NEARSHORE 1808   63 60   50/ 16/ 21 1010.5F
FRIPP NEARSHORE  1908   64 61   60/ 16/ 19 1009.4F


STATION/POSITION TIME  TEMP    WIND        PRES    WAVE   SWELL
                       AIR SEA DIR/SP/G            HT/PER HT/PER/DIR
                 (UTC) (F)     (DEG/KT/KT) (MB)    (FT/S) (FT/S/D)
5E ST. MARYS GA  1900      64                N/A     8/ 8   2/110/11
FRYING PAN BUOY  1910   70 70  110/ 14/ 17 1011.0
BUOY 41025       1850   70 73  140/ 12/ 16 1013.3F   5/ 6   3/160/ 6
CAPE LOOKOUT NC  1900   66     130/ 12/ 13 1012.4F
BUOY 41002       1850   69 70  100/ 21/ 25 1010.4F   8/ 7   3/ 70/11
BUOY 41010       NOT AVBL
ST AUGUSTINE FL  1900   67 68   10/ 20/ 23 1006.3F


$$



USA.gov is the U.S. government's official web portal to all federal, state and local government web resources and services.